TGW645 VTSP-WSSS

Flight info

Callsign TGW645
Flight time N/A
Altitude 35000
Route REBED1A REBED B579 VPL Y503 RINBA Y507 MAKNA Y511 TOPOR A464 ARAMA DCT TEBUN TEBUN1B
Aircraft A21N/M-SDE2E3FGHIJ1RWXY/LB1

Departure

Time N/A
Airport Phuket International Airport (VTSP)

Arrival

Time 2026-05-06 15:13
Airport Singapore Changi Airport (WSSS)
Time Latitude Longitude Altitude Speed Heading
2026-05-06 14:04 6.88583 99.31490 25912 ft 486 kts 140°
2026-05-06 14:04 6.85969 99.33631 26283 ft 484 kts 141°
2026-05-06 14:04 6.83364 99.35759 26638 ft 484 kts 141°
2026-05-06 14:05 6.80744 99.37892 27045 ft 483 kts 141°
2026-05-06 14:05 6.78131 99.40033 27450 ft 484 kts 141°
2026-05-06 14:05 6.75520 99.42166 27933 ft 481 kts 141°
2026-05-06 14:05 6.72937 99.44278 28312 ft 480 kts 141°
2026-05-06 14:06 6.70348 99.46394 28701 ft 477 kts 140°
2026-05-06 14:06 6.67768 99.48504 29008 ft 478 kts 141°
2026-05-06 14:06 6.65189 99.50609 29384 ft 476 kts 141°
2026-05-06 14:06 6.62630 99.52698 29714 ft 472 kts 140°
2026-05-06 14:07 6.60073 99.54785 29935 ft 474 kts 141°
2026-05-06 14:07 6.57512 99.56874 30211 ft 474 kts 141°
2026-05-06 14:07 6.54955 99.58962 30503 ft 473 kts 141°
2026-05-06 14:07 6.52437 99.61018 30782 ft 472 kts 141°
2026-05-06 14:08 6.49886 99.63099 31070 ft 472 kts 141°
2026-05-06 14:08 6.47338 99.65176 31326 ft 471 kts 141°
2026-05-06 14:08 6.44771 99.67206 31604 ft 470 kts 142°
2026-05-06 14:08 6.42194 99.69228 31872 ft 469 kts 142°
2026-05-06 14:09 6.39620 99.71246 32125 ft 469 kts 142°
2026-05-06 14:09 6.37052 99.73262 32375 ft 468 kts 142°
2026-05-06 14:09 6.34587 99.75397 32613 ft 467 kts 135°
2026-05-06 14:09 6.32303 99.77713 32860 ft 467 kts 134°
2026-05-06 14:10 6.30034 99.80044 33096 ft 466 kts 134°
2026-05-06 14:10 6.27761 99.82380 33319 ft 465 kts 134°
2026-05-06 14:10 6.25493 99.84697 33528 ft 465 kts 134°
2026-05-06 14:10 6.23229 99.87015 33733 ft 464 kts 134°
2026-05-06 14:11 6.20968 99.89331 33958 ft 463 kts 134°
2026-05-06 14:11 6.18706 99.91646 34137 ft 463 kts 134°
2026-05-06 14:11 6.16449 99.93956 34333 ft 463 kts 134°
2026-05-06 14:11 6.14195 99.96262 34513 ft 462 kts 134°
2026-05-06 14:12 6.11938 99.98569 34689 ft 462 kts 134°
2026-05-06 14:12 6.09693 100.00860 34797 ft 462 kts 134°
2026-05-06 14:12 6.05180 100.05460 34819 ft 462 kts 134°
2026-05-06 14:13 6.00678 100.10052 34795 ft 461 kts 134°
2026-05-06 14:13 5.96207 100.14625 34795 ft 462 kts 134°
2026-05-06 14:14 5.91709 100.19232 34793 ft 461 kts 134°
2026-05-06 14:14 5.87214 100.23828 34787 ft 461 kts 134°
2026-05-06 14:15 5.82713 100.28425 34792 ft 461 kts 134°
2026-05-06 14:15 5.78214 100.33016 34791 ft 462 kts 134°
2026-05-06 14:16 5.73700 100.37609 34790 ft 462 kts 134°
2026-05-06 14:16 5.69102 100.42111 34778 ft 462 kts 143°
2026-05-06 14:17 5.66316 100.43708 34787 ft 463 kts 157°
2026-05-06 14:17 5.63307 100.44861 34798 ft 463 kts 160°
2026-05-06 14:17 5.57263 100.47069 34791 ft 463 kts 159°
2026-05-06 14:18 5.51229 100.49344 34789 ft 463 kts 159°
2026-05-06 14:18 5.45215 100.51638 34791 ft 463 kts 159°
2026-05-06 14:19 5.39191 100.53933 34787 ft 463 kts 159°
2026-05-06 14:19 5.33204 100.56212 34800 ft 463 kts 159°
2026-05-06 14:20 5.27183 100.58504 34795 ft 463 kts 159°
2026-05-06 14:20 5.21145 100.60803 34803 ft 463 kts 159°
2026-05-06 14:21 5.15113 100.63093 34830 ft 463 kts 159°
2026-05-06 14:21 5.09085 100.65383 34817 ft 463 kts 159°
2026-05-06 14:22 5.03078 100.67671 34829 ft 463 kts 159°
2026-05-06 14:22 4.97053 100.69962 34832 ft 463 kts 159°
2026-05-06 14:23 4.91013 100.72255 34839 ft 463 kts 159°
2026-05-06 14:23 4.85023 100.74526 34846 ft 463 kts 159°
2026-05-06 14:24 4.78997 100.76820 34850 ft 463 kts 159°
2026-05-06 14:24 4.72962 100.79114 34856 ft 464 kts 159°
2026-05-06 14:25 4.66922 100.81405 34860 ft 464 kts 159°
2026-05-06 14:25 4.60885 100.83696 34860 ft 464 kts 159°
2026-05-06 14:26 4.54846 100.85991 34863 ft 464 kts 159°
2026-05-06 14:26 4.48807 100.88283 34870 ft 464 kts 159°
2026-05-06 14:27 4.42885 100.90845 34864 ft 464 kts 154°
2026-05-06 14:27 4.37080 100.93676 34860 ft 464 kts 154°
2026-05-06 14:28 4.31272 100.96510 34860 ft 464 kts 154°
2026-05-06 14:28 4.25460 100.99343 34860 ft 464 kts 154°
2026-05-06 14:29 4.19667 101.02164 34861 ft 464 kts 154°
2026-05-06 14:29 4.13864 101.04991 34860 ft 464 kts 154°
2026-05-06 14:30 4.08084 101.07804 34860 ft 464 kts 154°
2026-05-06 14:30 4.02245 101.10648 34848 ft 464 kts 154°
2026-05-06 14:31 3.96465 101.13454 34840 ft 464 kts 154°
2026-05-06 14:31 3.90651 101.16279 34845 ft 464 kts 154°
2026-05-06 14:32 3.84847 101.19106 34851 ft 464 kts 154°
2026-05-06 14:32 3.79038 101.21937 34850 ft 464 kts 154°
2026-05-06 14:33 3.73275 101.24866 34850 ft 464 kts 152°
2026-05-06 14:33 3.67545 101.27848 34850 ft 464 kts 152°
2026-05-06 14:34 3.62774 101.30331 34850 ft 464 kts 152°
2026-05-06 14:34 3.57055 101.33309 34850 ft 464 kts 152°
2026-05-06 14:35 3.51318 101.36294 34850 ft 464 kts 152°
2026-05-06 14:35 3.45592 101.39272 34849 ft 464 kts 152°
2026-05-06 14:36 3.39856 101.42258 34850 ft 464 kts 152°
2026-05-06 14:36 3.34123 101.45239 34853 ft 464 kts 152°
2026-05-06 14:37 3.28287 101.48032 34888 ft 463 kts 155°
2026-05-06 14:37 3.22425 101.50735 34884 ft 464 kts 155°
2026-05-06 14:38 3.16564 101.53438 34875 ft 464 kts 155°
2026-05-06 14:38 3.10732 101.56132 34863 ft 464 kts 155°
2026-05-06 14:39 3.04859 101.58843 34852 ft 465 kts 155°
2026-05-06 14:39 2.98974 101.61558 34849 ft 465 kts 155°
2026-05-06 14:40 2.93105 101.64265 34850 ft 465 kts 155°
2026-05-06 14:40 2.87220 101.66983 34850 ft 465 kts 155°
2026-05-06 14:41 2.81330 101.69698 34850 ft 465 kts 155°
2026-05-06 14:41 2.75448 101.72410 34851 ft 466 kts 155°
2026-05-06 14:42 2.69623 101.75167 34850 ft 466 kts 154°
2026-05-06 14:42 2.63794 101.78005 34850 ft 466 kts 154°
2026-05-06 14:43 2.57970 101.80841 34851 ft 466 kts 154°
2026-05-06 14:43 2.52634 101.84457 34846 ft 465 kts 133°
2026-05-06 14:44 2.48646 101.89538 34853 ft 465 kts 126°
2026-05-06 14:45 2.42862 101.97324 34860 ft 465 kts 127°
2026-05-06 14:45 2.38963 102.02501 34865 ft 465 kts 127°
2026-05-06 14:46 2.35076 102.07650 34870 ft 464 kts 127°
2026-05-06 14:46 2.31181 102.12824 34871 ft 465 kts 127°
2026-05-06 14:47 2.27295 102.17985 34872 ft 465 kts 127°
2026-05-06 14:47 2.23436 102.23103 34881 ft 465 kts 127°
2026-05-06 14:48 2.19542 102.28273 34880 ft 466 kts 127°
2026-05-06 14:48 2.15855 102.33163 34876 ft 466 kts 127°
2026-05-06 14:49 2.11950 102.38346 34873 ft 466 kts 127°
2026-05-06 14:49 2.08053 102.43519 34852 ft 465 kts 127°
2026-05-06 14:49 2.06120 102.46083 34477 ft 463 kts 127°
2026-05-06 14:50 2.04175 102.48663 34174 ft 465 kts 127°
2026-05-06 14:50 2.02229 102.51245 33910 ft 466 kts 127°
2026-05-06 14:50 2.00266 102.53850 33653 ft 467 kts 127°
2026-05-06 14:50 1.98310 102.56447 33402 ft 468 kts 127°
2026-05-06 14:51 1.96347 102.59053 33165 ft 468 kts 127°
2026-05-06 14:51 1.94386 102.61654 32904 ft 469 kts 127°
2026-05-06 14:51 1.92432 102.64249 32576 ft 469 kts 127°
2026-05-06 14:51 1.90471 102.66855 31861 ft 467 kts 127°
2026-05-06 14:52 1.88542 102.69416 31010 ft 466 kts 127°
2026-05-06 14:52 1.86589 102.72005 30134 ft 466 kts 127°
2026-05-06 14:52 1.84643 102.74587 29233 ft 467 kts 127°
2026-05-06 14:52 1.82681 102.77187 28310 ft 469 kts 127°
2026-05-06 14:53 1.80719 102.79795 27392 ft 469 kts 127°
2026-05-06 14:53 1.78757 102.82399 26390 ft 471 kts 127°
2026-05-06 14:53 1.76780 102.85023 25356 ft 474 kts 126°
2026-05-06 14:53 1.74796 102.87660 24375 ft 474 kts 126°
2026-05-06 14:54 1.73001 102.90409 23494 ft 470 kts 119°
2026-05-06 14:54 1.71454 102.93286 22425 ft 468 kts 117°
2026-05-06 14:54 1.69915 102.96159 21197 ft 470 kts 117°
2026-05-06 14:54 1.68368 102.99048 20179 ft 470 kts 117°
2026-05-06 14:55 1.66837 103.01912 19450 ft 461 kts 117°
2026-05-06 14:55 1.65344 103.04711 18783 ft 452 kts 117°
2026-05-06 14:55 1.63881 103.07459 18136 ft 445 kts 117°
2026-05-06 14:55 1.62435 103.10174 17381 ft 442 kts 117°
2026-05-06 14:56 1.61006 103.12870 16753 ft 432 kts 117°
2026-05-06 14:56 1.59611 103.15496 15957 ft 426 kts 117°
2026-05-06 14:56 1.58225 103.18102 15243 ft 423 kts 117°
2026-05-06 14:56 1.56848 103.20687 14644 ft 419 kts 117°
2026-05-06 14:57 1.55505 103.23199 14164 ft 412 kts 117°
2026-05-06 14:57 1.54172 103.25698 13719 ft 404 kts 117°
2026-05-06 14:57 1.52860 103.28156 13294 ft 397 kts 117°
2026-05-06 14:57 1.51561 103.30590 12757 ft 395 kts 117°
2026-05-06 14:58 1.50278 103.32993 12237 ft 392 kts 118°
2026-05-06 14:58 1.48977 103.35433 11808 ft 393 kts 118°
2026-05-06 14:58 1.47710 103.37801 11508 ft 378 kts 118°
2026-05-06 14:58 1.46537 103.40086 11270 ft 362 kts 113°
2026-05-06 14:59 1.45968 103.42482 11038 ft 347 kts 92°
2026-05-06 14:59 1.46158 103.44822 10857 ft 332 kts 82°
2026-05-06 14:59 1.46501 103.47054 10662 ft 318 kts 81°
2026-05-06 14:59 1.46829 103.49192 10489 ft 305 kts 81°
2026-05-06 15:00 1.47139 103.51265 10035 ft 300 kts 82°
2026-05-06 15:00 1.47439 103.53325 9394 ft 300 kts 82°
2026-05-06 15:00 1.47732 103.55359 8856 ft 297 kts 82°
2026-05-06 15:00 1.48021 103.57385 8420 ft 291 kts 82°
2026-05-06 15:01 1.48300 103.59373 8031 ft 287 kts 82°
2026-05-06 15:01 1.48574 103.61331 7672 ft 281 kts 82°
2026-05-06 15:01 1.48844 103.63262 7345 ft 280 kts 82°
2026-05-06 15:01 1.49111 103.65175 7031 ft 276 kts 82°
2026-05-06 15:02 1.49370 103.67032 6936 ft 260 kts 82°
2026-05-06 15:02 1.49612 103.68760 6992 ft 248 kts 82°
2026-05-06 15:02 1.49850 103.70466 7023 ft 248 kts 82°
2026-05-06 15:02 1.50040 103.72175 7016 ft 247 kts 85°
2026-05-06 15:03 1.50179 103.73890 7015 ft 247 kts 85°
2026-05-06 15:03 1.50314 103.75602 7027 ft 247 kts 86°
2026-05-06 15:03 1.50449 103.77307 6995 ft 247 kts 86°
2026-05-06 15:03 1.50585 103.79018 7032 ft 247 kts 86°
2026-05-06 15:04 1.50721 103.80737 7014 ft 247 kts 86°
2026-05-06 15:04 1.50890 103.82446 7019 ft 247 kts 82°
2026-05-06 15:04 1.51460 103.84042 6805 ft 247 kts 58°
2026-05-06 15:04 1.52410 103.85440 6539 ft 246 kts 55°
2026-05-06 15:05 1.53391 103.86830 6206 ft 243 kts 56°
2026-05-06 15:05 1.54328 103.88192 5882 ft 234 kts 56°
2026-05-06 15:05 1.55217 103.89506 5566 ft 222 kts 57°
2026-05-06 15:05 1.56062 103.90774 5157 ft 217 kts 57°
2026-05-06 15:06 1.56889 103.92028 4714 ft 215 kts 57°
2026-05-06 15:06 1.57704 103.93270 4253 ft 213 kts 57°
2026-05-06 15:06 1.58514 103.94511 3982 ft 212 kts 57°
2026-05-06 15:06 1.59295 103.95752 3620 ft 209 kts 66°
2026-05-06 15:07 1.59598 103.97158 3212 ft 207 kts 88°
2026-05-06 15:07 1.59598 103.98578 2988 ft 201 kts 100°
2026-05-06 15:07 1.59216 103.99921 2973 ft 202 kts 109°
2026-05-06 15:07 1.58739 104.01242 2987 ft 202 kts 110°
2026-05-06 15:08 1.58258 104.02562 3038 ft 202 kts 110°
2026-05-06 15:08 1.57765 104.03882 3074 ft 203 kts 113°
2026-05-06 15:08 1.56868 104.04939 3036 ft 203 kts 147°
2026-05-06 15:08 1.55535 104.05373 3030 ft 203 kts 172°
2026-05-06 15:09 1.54122 104.05409 3027 ft 203 kts 180°
2026-05-06 15:09 1.52737 104.05214 3011 ft 196 kts 194°
2026-05-06 15:09 1.51465 104.04773 2907 ft 193 kts 201°
2026-05-06 15:09 1.50236 104.04247 2696 ft 193 kts 202°
2026-05-06 15:10 1.49004 104.03723 2458 ft 190 kts 202°
2026-05-06 15:10 1.47840 104.03229 2193 ft 178 kts 202°
2026-05-06 15:10 1.46735 104.02759 1989 ft 168 kts 202°
2026-05-06 15:10 1.45683 104.02313 1751 ft 162 kts 202°
2026-05-06 15:11 1.44663 104.01880 1528 ft 159 kts 202°
2026-05-06 15:11 1.43648 104.01450 1321 ft 158 kts 203°
2026-05-06 15:11 1.42640 104.01022 1116 ft 154 kts 203°
2026-05-06 15:11 1.41718 104.00631 924 ft 140 kts 202°
2026-05-06 15:12 1.40825 104.00252 733 ft 139 kts 203°
2026-05-06 15:12 1.39934 103.99876 554 ft 139 kts 203°
2026-05-06 15:12 1.39044 103.99503 367 ft 138 kts 203°
2026-05-06 15:12 1.38160 103.99124 192 ft 138 kts 204°
2026-05-06 15:13 1.37279 103.98751 45 ft 135 kts 203°
2026-05-06 15:13 1.36491 103.98418 36 ft 103 kts 202°
2026-05-06 15:13 1.35997 103.98211 36 ft 51 kts 202°
2026-05-06 15:13 1.35773 103.98124 36 ft 26 kts 191°
2026-05-06 15:14 1.35590 103.98116 36 ft 19 kts 164°
2026-05-06 15:14 1.35544 103.98202 36 ft 16 kts 50°
2026-05-06 15:14 1.35648 103.98256 36 ft 18 kts 24°
2026-05-06 15:14 1.35768 103.98308 36 ft 20 kts 22°
2026-05-06 15:15 1.35900 103.98363 36 ft 21 kts 22°
2026-05-06 15:15 1.36043 103.98424 36 ft 23 kts 23°
2026-05-06 15:15 1.36197 103.98489 36 ft 25 kts 22°
2026-05-06 15:15 1.36363 103.98558 36 ft 27 kts 23°
2026-05-06 15:16 1.36538 103.98632 36 ft 28 kts 22°
2026-05-06 15:16 1.36710 103.98704 36 ft 20 kts 22°
2026-05-06 15:16 1.36828 103.98757 36 ft 14 kts 41°
2026-05-06 15:16 1.36816 103.98853 36 ft 16 kts 114°
2026-05-06 15:17 1.36768 103.98962 36 ft 18 kts 114°
2026-05-06 15:17 1.36732 103.99048 36 ft 10 kts 112°
2026-05-06 15:17 1.36693 103.99114 36 ft 12 kts 151°
2026-05-06 15:17 1.36600 103.99128 36 ft 15 kts 173°
2026-05-06 15:18 1.36492 103.99142 36 ft 17 kts 172°
2026-05-06 15:18 1.36415 103.99123 36 ft 9 kts 261°
2026-05-06 15:18 1.36430 103.99074 36 ft 6 kts 294°
2026-05-06 15:18 1.36440 103.99049 36 ft 1 kts 293°
2026-05-06 15:19 1.36441 103.99049 36 ft 0 kts 293°